Weather History for Athens, OH

Change the Weather History Date:

Wednesday, March 13, 2013

  Actual Average (KPKB) Record (KPKB)
Temperature  
Mean Temperature 31 °F 42 °F  
Max Temperature 34 °F 53 °F 83 °F (1990)
Min Temperature 28 °F 32 °F 5 °F (1960)
Degree Days  
Heating Degree Days 34 23  
Month to date heating degree days 321  
Since 1 July heating degree days 4111  
Cooling Degree Days 0 0  
Month to date cooling degree days 0  
Year to date cooling degree days 0  
Moisture  
Dew Point 24 °F    
Average Humidity 76    
Maximum Humidity 95    
Minimum Humidity 57    
Precipitation  
Precipitation 0.00 in 0.12 in 0.68 in (2010)
Month to date precipitation 1.47  
Year to date precipitation 7.12  
Sea Level Pressure  
Sea Level Pressure 30.10 in    
Wind  
Wind Speed 7 mph (West)    
Max Wind Speed 21 mph    
Max Gust Speed 32 mph    
Visibility 9 miles    
Events Snow    
T = Trace of Precipitation, MM = Missing Value Source: NWS Daily Summary

Daily Weather History Graph

Daily Weather History Graph

Search for Another Location

Airport:

Trip Planner

Search our weather history database for the weather conditions in past years. The results will help you decide how hot, cold, wet, or windy it might be!

Date:

Astronomy

Mar. 13, 2013 Rise Set
Actual Time 7:43 AM EDT 7:34 PM EDT
Civil Twilight 7:16 AM EDT 8:00 PM EDT
Nautical Twilight 6:45 AM EDT 8:31 PM EDT
Astronomical Twilight 6:14 AM EDT 9:03 PM EDT
Moon 8:22 AM EDT (3/13) 9:48 PM EDT (3/13)
Length of Visible Light 12h 44m
Length of Day
11h 51m
Waxing Crescent, 4% of the Moon is Illuminated
Mar 13
Waxing Crescent
Mar 19
First Quarter
Mar 27
Full
Apr 3
Last Quarter
Apr 10
New

Hourly Weather History & Observations

Time (EDT) Temp. Windchill Dew Point Humidity Pressure Visibility Wind Dir Wind Speed Gust Speed Precip Events Conditions
12:15 AM 34.2 °F 31.2 °F 30.9 °F 88% 30.02 in 10.0 mi NW 3.5 mph - N/A   Overcast
12:35 AM 33.8 °F - 31.1 °F 90% 30.02 in 10.0 mi Calm Calm - N/A   Overcast
12:55 AM 33.8 °F - 30.9 °F 89% 30.01 in 10.0 mi Calm Calm - N/A   Mostly Cloudy
1:15 AM 31.6 °F - 29.1 °F 90% 30.00 in 10.0 mi Calm Calm - N/A   Scattered Clouds
1:55 AM 30.2 °F - 28.4 °F 93% 30.00 in 10.0 mi Calm Calm - N/A   Clear
2:15 AM 29.1 °F 25.4 °F 27.5 °F 94% 30.01 in 7.0 mi WSW 3.5 mph - N/A   Mostly Cloudy
2:35 AM 29.3 °F 25.6 °F 27.9 °F 94% 30.01 in 7.0 mi West 3.5 mph - N/A   Mostly Cloudy
2:55 AM 29.3 °F - 28.0 °F 95% 30.01 in 5.0 mi Calm Calm - N/A   Mostly Cloudy
3:15 AM 30.9 °F - 29.3 °F 94% 30.00 in 10.0 mi Calm Calm - N/A   Scattered Clouds
3:35 AM 30.6 °F 27.1 °F 28.2 °F 91% 30.00 in 10.0 mi WSW 3.5 mph - N/A   Scattered Clouds
3:55 AM 30.2 °F 24.3 °F 27.9 °F 91% 30.00 in 10.0 mi WSW 5.8 mph - N/A   Scattered Clouds
4:15 AM 31.5 °F 24.9 °F 28.8 °F 90% 29.99 in 10.0 mi WSW 6.9 mph - N/A   Scattered Clouds
4:55 AM 31.6 °F 23.7 °F 27.7 °F 85% 29.99 in 10.0 mi WSW 9.2 mph 17.3 mph N/A   Clear
5:15 AM 30.9 °F 25.2 °F 27.0 °F 85% 29.99 in 10.0 mi WSW 5.8 mph - N/A   Clear
5:35 AM 30.7 °F 26.0 °F 27.0 °F 86% 29.99 in 10.0 mi SW 4.6 mph - N/A   Scattered Clouds
5:55 AM 30.9 °F 27.5 °F 27.5 °F 87% 29.99 in 10.0 mi SSW 3.5 mph - N/A   Mostly Cloudy
6:15 AM 30.9 °F 27.5 °F 27.5 °F 87% 29.99 in 10.0 mi SW 3.5 mph - N/A   Overcast
6:35 AM 30.6 °F - 27.5 °F 88% 29.99 in 10.0 mi Calm Calm - N/A   Overcast
6:55 AM 30.9 °F 27.5 °F 27.9 °F 88% 29.99 in 10.0 mi SSW 3.5 mph - N/A   Overcast
7:15 AM 31.1 °F 27.7 °F 27.9 °F 88% 29.99 in 10.0 mi SSW 3.5 mph - N/A   Overcast
7:35 AM 31.5 °F 26.8 °F 27.9 °F 87% 29.99 in 7.0 mi SW 4.6 mph - N/A Snow Light Snow
7:55 AM 31.1 °F 24.5 °F 28.6 °F 90% 29.99 in 5.0 mi SW 6.9 mph - N/A Snow Light Snow
8:15 AM 31.6 °F 24.4 °F 28.4 °F 88% 30.00 in 7.0 mi WSW 8.1 mph - N/A Snow Light Snow
8:35 AM 31.5 °F 21.4 °F 28.4 °F 88% 30.01 in 1.5 mi WSW 13.8 mph - N/A Snow Light Snow
8:55 AM 31.3 °F 23.3 °F 28.2 °F 88% 30.01 in 4.0 mi West 9.2 mph - N/A Snow Light Snow
9:15 AM 32.0 °F 23.0 °F 27.3 °F 83% 30.02 in 10.0 mi West 11.5 mph - N/A   Overcast
9:35 AM 32.0 °F 24.8 °F 26.6 °F 80% 30.02 in 10.0 mi West 8.1 mph - N/A   Overcast
9:55 AM 31.8 °F 25.4 °F 27.5 °F 84% 30.03 in 2.0 mi West 6.9 mph - N/A Snow Light Snow
10:15 AM 32.0 °F 22.5 °F 26.2 °F 79% 30.04 in 7.0 mi West 12.7 mph 18.4 mph N/A Snow Light Snow
10:35 AM 29.5 °F 18.4 °F 25.7 °F 86% 30.06 in 0.8 mi WNW 15.0 mph 20.7 mph N/A Snow Light Snow
10:55 AM 30.4 °F 21.5 °F 26.1 °F 84% 30.07 in 5.0 mi West 10.4 mph 19.6 mph N/A Snow Light Snow
11:15 AM 31.1 °F 20.1 °F 22.8 °F 71% 30.07 in 10.0 mi WNW 16.1 mph 23.0 mph N/A   Overcast
11:35 AM 32.0 °F 21.2 °F 22.6 °F 68% 30.08 in 10.0 mi WNW 16.1 mph 23.0 mph N/A   Mostly Cloudy
11:55 AM 31.8 °F 20.6 °F 18.9 °F 59% 30.09 in 10.0 mi West 17.3 mph 23.0 mph N/A   Mostly Cloudy
12:15 PM 32.0 °F 20.8 °F 19.2 °F 59% 30.09 in 10.0 mi WNW 17.3 mph 23.0 mph N/A   Overcast
12:35 PM 32.5 °F 20.5 °F 19.0 °F 58% 30.10 in 10.0 mi West 20.7 mph 27.6 mph N/A   Overcast
12:55 PM 31.6 °F 22.1 °F 21.0 °F 65% 30.11 in 10.0 mi WNW 12.7 mph 23.0 mph N/A   Overcast
1:15 PM 32.2 °F 21.8 °F 22.8 °F 68% 30.11 in 4.0 mi WNW 15.0 mph 20.7 mph N/A Snow Light Snow
1:35 PM 31.3 °F 19.5 °F 21.6 °F 67% 30.13 in 5.0 mi WNW 18.4 mph 24.2 mph N/A Snow Light Snow
1:55 PM 30.7 °F 21.4 °F 23.5 °F 75% 30.12 in 10.0 mi West 11.5 mph 16.1 mph N/A   Overcast
2:15 PM 31.5 °F 21.4 °F 21.4 °F 66% 30.12 in 5.0 mi West 13.8 mph - N/A Snow Light Snow
2:35 PM 33.4 °F 22.0 °F 21.0 °F 60% 30.11 in 10.0 mi WSW 19.6 mph 25.3 mph N/A   Overcast
2:55 PM 32.0 °F 21.2 °F 23.0 °F 69% 30.13 in 5.0 mi West 16.1 mph 32.2 mph N/A Snow Light Snow
3:15 PM 32.2 °F 20.4 °F 21.2 °F 64% 30.13 in 10.0 mi West 19.6 mph 31.1 mph N/A   Overcast
3:35 PM 32.5 °F 21.2 °F 18.7 °F 57% 30.13 in 10.0 mi West 18.4 mph 24.2 mph N/A   Overcast
3:55 PM 32.4 °F 22.1 °F 19.2 °F 58% 30.14 in 10.0 mi West 15.0 mph 25.3 mph N/A   Overcast
4:15 PM 32.2 °F 21.4 °F 18.9 °F 58% 30.14 in 10.0 mi West 16.1 mph 26.5 mph N/A   Overcast
4:35 PM 29.5 °F 19.3 °F 23.9 °F 80% 30.15 in 0.8 mi West 12.7 mph 27.6 mph N/A Snow Light Snow
4:55 PM 31.5 °F 20.9 °F 24.3 °F 75% 30.16 in 10.0 mi West 15.0 mph - N/A   Overcast
5:15 PM 32.0 °F 21.2 °F 21.4 °F 65% 30.16 in 10.0 mi West 16.1 mph 25.3 mph N/A   Overcast
5:35 PM 31.6 °F 20.7 °F 21.6 °F 66% 30.17 in 10.0 mi West 16.1 mph 25.3 mph N/A   Overcast
5:55 PM 30.7 °F 19.2 °F 22.3 °F 71% 30.17 in 10.0 mi WNW 17.3 mph 21.9 mph N/A   Overcast
6:15 PM 31.1 °F 20.5 °F 22.5 °F 70% 30.18 in 7.0 mi WNW 15.0 mph 23.0 mph N/A Snow Light Snow
6:35 PM 30.2 °F 21.9 °F 23.5 °F 76% 30.19 in 7.0 mi WNW 9.2 mph 16.1 mph N/A Snow Light Snow
6:55 PM 30.6 °F 22.4 °F 22.1 °F 71% 30.19 in 10.0 mi WNW 9.2 mph 17.3 mph N/A Snow Light Snow
7:15 PM 29.8 °F 23.0 °F 23.5 °F 77% 30.20 in 10.0 mi West 6.9 mph - N/A   Overcast
7:35 PM 29.3 °F 20.2 °F 23.9 °F 80% 30.21 in 10.0 mi West 10.4 mph 17.3 mph N/A Snow Light Snow
7:55 PM 29.3 °F 19.6 °F 23.7 °F 80% 30.22 in 10.0 mi WNW 11.5 mph 17.3 mph N/A Snow Light Snow
8:15 PM 29.3 °F 22.3 °F 23.0 °F 77% 30.22 in 10.0 mi West 6.9 mph - N/A   Overcast
8:35 PM 30.0 °F 22.4 °F 18.3 °F 62% 30.22 in 10.0 mi WNW 8.1 mph - N/A   Overcast
8:55 PM 29.8 °F 19.3 °F 16.7 °F 58% 30.22 in 10.0 mi WNW 13.8 mph 19.6 mph N/A   Overcast
9:15 PM 29.7 °F 20.1 °F 16.9 °F 59% 30.23 in 10.0 mi WNW 11.5 mph 16.1 mph N/A   Overcast
9:35 PM 29.7 °F 19.6 °F 17.2 °F 60% 30.23 in 10.0 mi WNW 12.7 mph 21.9 mph N/A   Overcast
9:55 PM 29.5 °F 20.4 °F 17.6 °F 61% 30.23 in 10.0 mi WNW 10.4 mph - N/A   Overcast
10:15 PM 29.7 °F 22.8 °F 17.6 °F 61% 30.24 in 10.0 mi West 6.9 mph - N/A   Overcast
10:35 PM 29.3 °F 20.8 °F 18.5 °F 64% 30.24 in 10.0 mi WNW 9.2 mph - N/A   Overcast
10:55 PM 29.3 °F 22.3 °F 18.0 °F 63% 30.24 in 10.0 mi West 6.9 mph 19.6 mph N/A   Overcast
11:15 PM 29.1 °F 18.9 °F 17.4 °F 62% 30.25 in 10.0 mi West 12.7 mph - N/A   Overcast
11:35 PM 28.9 °F 20.4 °F 17.2 °F 62% 30.25 in 10.0 mi WNW 9.2 mph 16.1 mph N/A   Overcast
11:55 PM 28.9 °F 19.8 °F 18.0 °F 64% 30.25 in 10.0 mi WNW 10.4 mph - N/A   Overcast